AAL642 KCLT-KEYW

Flight info

Callsign AAL642
Flight time N/A
Altitude 36000
Route ICONS5 NOOKS CAE JEVED WOPNR COBOK OMN EBAYY FNTSY1
Aircraft A319/M-SDE3FGHIRWY/LB1

Departure

Time 2026-05-05 01:04
Airport Charlotte Douglas International Airport (KCLT)

Arrival

Time N/A
Airport Key West International Airport (KEYW)
Time Latitude Longitude Altitude Speed Heading
2026-05-05 00:42 35.21971 -80.94839 733 ft 0 kts 27°
2026-05-05 00:56 35.21970 -80.94839 733 ft 2 kts 27°
2026-05-05 00:56 35.21947 -80.94853 732 ft 4 kts 27°
2026-05-05 00:56 35.21928 -80.94865 732 ft 4 kts 22°
2026-05-05 00:56 35.21902 -80.94873 732 ft 4 kts 352°
2026-05-05 00:57 35.21881 -80.94861 733 ft 4 kts 299°
2026-05-05 00:57 35.21877 -80.94832 725 ft 4 kts 265°
2026-05-05 00:57 35.21878 -80.94815 738 ft 0 kts 265°
2026-05-05 01:00 35.21878 -80.94823 733 ft 2 kts 265°
2026-05-05 01:00 35.21876 -80.94855 733 ft 5 kts 266°
2026-05-05 01:00 35.21873 -80.94911 733 ft 8 kts 266°
2026-05-05 01:00 35.21868 -80.94981 733 ft 6 kts 266°
2026-05-05 01:01 35.21887 -80.95039 733 ft 9 kts 321°
2026-05-05 01:01 35.21964 -80.95052 734 ft 14 kts 357°
2026-05-05 01:01 35.22072 -80.95059 734 ft 17 kts 355°
2026-05-05 01:01 35.22194 -80.95071 734 ft 18 kts 355°
2026-05-05 01:02 35.22319 -80.95082 734 ft 18 kts 355°
2026-05-05 01:02 35.22450 -80.95094 734 ft 19 kts 356°
2026-05-05 01:02 35.22582 -80.95104 734 ft 18 kts 357°
2026-05-05 01:02 35.22682 -80.95113 733 ft 13 kts 355°
2026-05-05 01:03 35.22733 -80.95163 733 ft 9 kts 282°
2026-05-05 01:03 35.22730 -80.95231 737 ft 6 kts 265°
2026-05-05 01:03 35.22728 -80.95265 739 ft 3 kts 265°
2026-05-05 01:03 35.22721 -80.95300 740 ft 7 kts 243°
2026-05-05 01:04 35.22627 -80.95310 741 ft 35 kts 174°
2026-05-05 01:04 35.21138 -80.95183 749 ft 166 kts 176°
2026-05-05 01:04 35.19963 -80.95076 1381 ft 169 kts 176°
2026-05-05 01:05 35.18791 -80.94964 2165 ft 169 kts 179°
2026-05-05 01:05 35.17601 -80.94830 2697 ft 185 kts 176°
2026-05-05 01:05 35.16215 -80.94621 2969 ft 218 kts 175°
2026-05-05 01:05 35.14619 -80.94485 3488 ft 240 kts 182°
2026-05-05 01:06 35.12916 -80.94549 4391 ft 248 kts 185°
2026-05-05 01:06 35.11174 -80.94679 5373 ft 253 kts 186°
2026-05-05 01:06 35.09389 -80.94824 6281 ft 262 kts 186°
2026-05-05 01:06 35.07538 -80.94967 7128 ft 270 kts 186°
2026-05-05 01:07 35.05642 -80.95106 8049 ft 276 kts 186°
2026-05-05 01:07 35.03712 -80.95239 9004 ft 280 kts 186°
2026-05-05 01:07 35.01778 -80.95364 9959 ft 284 kts 186°
2026-05-05 01:07 34.99774 -80.95492 10633 ft 297 kts 186°
2026-05-05 01:08 34.97643 -80.95631 11054 ft 318 kts 186°
2026-05-05 01:08 34.95391 -80.95771 11704 ft 329 kts 186°
2026-05-05 01:08 34.93087 -80.95906 12491 ft 335 kts 185°
2026-05-05 01:08 34.90731 -80.96043 13283 ft 341 kts 185°
2026-05-05 01:09 34.88346 -80.96184 14046 ft 346 kts 185°
2026-05-05 01:09 34.85927 -80.96329 14757 ft 351 kts 185°
2026-05-05 01:09 34.83476 -80.96476 15512 ft 354 kts 186°